Reading, PA

3:06 PM EDT on October 18, 2019 (GMT -0400)
Reading Regional-Spaatz

Weather History for KRDG - August, 2019

Change the Weather History Date:

Friday, August 16, 2019

  Actual Average Record
Temperature  
Mean Temperature 77 °F 73 °F  
Max Temperature 83 °F 84 °F 96 °F (1988)
Min Temperature 70 °F 63 °F 50 °F (1889)
Degree Days  
Heating Degree Days 0 0  
Month to date heating degree days 0 0  
Since 1 June heating degree days 16 25  
Since 1 July heating degree days 0 1  
Cooling Degree Days 12 8  
Month to date cooling degree days 186 142  
Year to date cooling degree days 924 694  
Since 1 June cooling degree days 819 634  
Growing Degree Days 26 (Base 50)    
Moisture  
Dew Point 71 °F    
Average Humidity 85    
Maximum Humidity 100    
Minimum Humidity 69    
Precipitation  
Precipitation 0.40 in 0.12 in 1.77 in (1920)
Month to date precipitation 1.30 1.85  
Year to date precipitation 39.59 27.17  
Sea Level Pressure  
Sea Level Pressure 30.00 in    
Wind  
Wind Speed 3 mph (SSE)    
Max Wind Speed 13 mph    
Max Gust Speed 18 mph    
Visibility 9 miles    
Events Rain , Thunderstorm    
T = Trace of Precipitation, MM = Missing Value Source: NWS Daily Summary

Daily Weather History Graph

Daily Weather History Graph

Search for Another Location

Airport or City:

Astronomy

Aug. 16, 2019 Rise Set
Actual Time 6:15 AM EDT 8:00 PM EDT
Civil Twilight 5:46 AM EDT 8:29 PM EDT
Nautical Twilight 5:10 AM EDT 9:04 PM EDT
Astronomical Twilight 4:33 AM EDT 9:42 PM EDT
Moon 8:58 PM EDT (8/16) 7:04 AM EDT (8/16)
Length of Visible Light 14h 42m
Length of Day
13h 44m
Full, 99% of the Moon is Illuminated
Aug 16
Full
Aug 23
Last Quarter
Aug 30
New
Sep 5
First Quarter
Sep 14
Full

Hourly Weather History & Observations

Time (EDT) Temp. Heat Index Dew Point Humidity Pressure Visibility Wind Dir Wind Speed Gust Speed Precip Events Conditions
12:54 AM 72.0 °F - 70.0 °F 93% 29.99 in 10.0 mi SE 9.2 mph - 0.02 in   Mostly Cloudy
1:54 AM 72.0 °F - 70.0 °F 93% 30.00 in 10.0 mi SE 8.1 mph - N/A   Overcast
2:54 AM 71.1 °F - 69.1 °F 93% 30.00 in 10.0 mi SSE 4.6 mph - N/A   Overcast
3:54 AM 71.1 °F - 70.0 °F 96% 30.00 in 10.0 mi South 3.5 mph - N/A   Overcast
4:29 AM 71.1 °F - 69.1 °F 93% 29.99 in 10.0 mi SE 5.8 mph - N/A   Overcast
4:54 AM 71.1 °F - 69.1 °F 93% 30.01 in 10.0 mi Calm Calm - N/A   Mostly Cloudy
5:54 AM 70.0 °F - 69.1 °F 97% 30.01 in 10.0 mi Calm Calm - N/A   Scattered Clouds
6:18 AM 70.0 °F - 69.1 °F 97% 30.00 in 10.0 mi Calm Calm - N/A   Mostly Cloudy
6:54 AM 71.1 °F - 69.1 °F 93% 30.01 in 10.0 mi SSE 3.5 mph - N/A   Overcast
7:54 AM 72.0 °F - 69.1 °F 91% 30.02 in 10.0 mi ESE 8.1 mph - N/A   Mostly Cloudy
8:54 AM 73.9 °F - 70.0 °F 87% 30.02 in 6.0 mi South 6.9 mph - N/A   Haze
9:24 AM 75.0 °F - 70.0 °F 84% 30.01 in 6.0 mi South 6.9 mph - N/A   Haze
9:54 AM 75.0 °F - 70.0 °F 84% 30.03 in 6.0 mi SE 4.6 mph - N/A   Haze
9:59 AM 75.0 °F - 70.0 °F 84% 30.03 in 6.0 mi SE 4.6 mph - N/A   Haze
10:54 AM 77.0 °F - 70.0 °F 79% 30.04 in 6.0 mi South 4.6 mph - N/A   Haze
11:01 AM 77.0 °F - 70.0 °F 79% 30.03 in 6.0 mi ESE 3.5 mph - N/A   Haze
11:54 AM 79.0 °F - 71.1 °F 77% 30.03 in 6.0 mi Variable 4.6 mph - N/A   Haze
12:52 PM 80.6 °F 84.6 °F 71.6 °F 74% 30.01 in 7.0 mi Calm Calm - N/A   Mostly Cloudy
12:54 PM 80.1 °F 83.6 °F 71.1 °F 74% 30.02 in 7.0 mi WSW 3.5 mph - N/A   Mostly Cloudy
1:46 PM 82.0 °F 86.3 °F 71.1 °F 69% 30.01 in 7.0 mi ESE 4.6 mph - N/A   Overcast
1:54 PM 82.0 °F 86.3 °F 71.1 °F 69% 30.02 in 7.0 mi Variable 3.5 mph - N/A   Overcast
2:13 PM 81.0 °F 85.2 °F 72.0 °F 74% 30.02 in 3.0 mi South 9.2 mph - 0.01 in Rain Light Rain
2:21 PM 78.1 °F - 72.0 °F 81% 30.02 in 7.0 mi Calm Calm - 0.07 in   Mostly Cloudy
2:54 PM 81.0 °F 86.2 °F 73.9 °F 79% 30.02 in 10.0 mi Calm Calm - 0.07 in   Overcast
3:54 PM 82.9 °F 88.8 °F 73.0 °F 72% 29.99 in 10.0 mi East 3.5 mph - N/A   Mostly Cloudy
4:54 PM 82.0 °F 86.7 °F 72.0 °F 71% 29.98 in 10.0 mi South 3.5 mph - N/A   Scattered Clouds
5:54 PM 81.0 °F 86.2 °F 73.9 °F 79% 29.98 in 10.0 mi Calm Calm - N/A   Mostly Cloudy
6:37 PM 75.9 °F - 75.0 °F 97% 29.96 in 10.0 mi East 12.7 mph 18.4 mph 0.30 in Rain , Thunderstorm Heavy Thunderstorms and Rain
6:52 PM 73.4 °F - 73.4 °F 100% 29.96 in 10.0 mi East 6.9 mph - 0.33 in Rain Light Rain
6:54 PM 73.9 °F - 72.0 °F 93% 29.97 in 10.0 mi Variable 5.8 mph - 0.33 in   Scattered Clouds
7:54 PM 73.9 °F - 73.0 °F 97% 29.97 in 10.0 mi West 3.5 mph - N/A   Clear
8:54 PM 73.0 °F - 73.0 °F 100% 29.99 in 10.0 mi Calm Calm - N/A   Clear
9:54 PM 72.0 °F - 72.0 °F 100% 30.00 in 10.0 mi Calm Calm - N/A   Partly Cloudy
10:54 PM 71.1 °F - 71.1 °F 100% 30.01 in 10.0 mi Calm Calm - N/A   Scattered Clouds
11:54 PM 71.1 °F - 71.1 °F 100% 30.01 in 10.0 mi Calm Calm - N/A   Partly Cloudy